Hourly Data Report for October 02, 2017

All times are specified in Local Standard Time (LST). Add 1 hour to adjust for Daylight Saving Time where and when it is observed.

YOHIN
NORTHWEST TERRITORIES

61°14'31.000" N
123°44'30.000" W
204.00 m
2204300
71020
XYH

Download Data

Hourly Data (October 2017)
Hourly Data Report for October 2, 2017
Temp Definition
°C
Dew Point Temp Definition
°C
Rel Hum Definition
%
Wind Dir Definition
10's deg

Wind Spd Definition
km/h
Visibility Definition
km
Stn Press Definition
kPa
Hmdx Definition


Wind Chill Definition


Weather Definition


TIME
00:00 -2.6 -3.0 97 LegendMM LegendMM   100.52     LegendNANA
01:00 -4.1 -4.5 97 LegendMM LegendMM   100.53     LegendNANA
02:00 -2.0 -2.3 98 LegendMM LegendMM   100.55     LegendNANA
03:00 -3.0 -3.5 97 LegendMM LegendMM   100.56     LegendNANA
04:00 -3.2 -3.8 96 LegendMM LegendMM   100.56     LegendNANA
05:00 -4.9 -5.4 96 LegendMM LegendMM   100.55     LegendNANA
06:00 -5.6 -6.2 96 LegendMM LegendMM   100.51     LegendNANA
07:00 -6.1 -6.7 96 LegendMM LegendMM   100.43     LegendNANA
08:00 -6.1 -6.6 96 LegendMM LegendMM   100.35     LegendNANA
09:00 -5.1 -5.4 98 LegendMM LegendMM   100.34     LegendNANA
10:00 -0.6 -0.9 98 LegendMM LegendMM   100.24     LegendNANA
11:00 5.5 -0.9 63 LegendMM LegendMM   100.17     LegendNANA
12:00 7.7 -1.2 54 LegendMM LegendMM   100.05     LegendNANA
13:00 10.3 -1.7 43 LegendMM LegendMM   99.95     LegendNANA
14:00 10.3 -0.8 46 LegendMM LegendMM   99.84     LegendNANA
15:00 12.4 -3.5 33 LegendMM LegendMM   99.80     LegendNANA
16:00 13.5 -2.3 33 LegendMM LegendMM   99.70     LegendNANA
17:00 13.8 -2.1 33 LegendMM LegendMM   99.59     LegendNANA
18:00 13.1 -1.8 36 LegendMM LegendMM   99.47     LegendNANA
19:00 9.9 -1.7 44 LegendMM LegendMM   99.36     LegendNANA
20:00 10.8 -2.4 40 LegendMM LegendMM   99.28     LegendNANA
21:00 7.7 -2.0 50 LegendMM LegendMM   99.19     LegendNANA
22:00 7.6 0.0 59 LegendMM LegendMM   99.10     LegendNANA
23:00 12.6 -4.3 31 LegendMM LegendMM   99.02     LegendNANA

Notes on Data Quality.

Legend

  • E = Estimated
  • M = Missing
  • NA = Not Available
  • ‡ = Partner data that is not subject to review by the National Climate Archives
Date modified: